Tracking 27107 objects as of 22-Mar-2023
HD Live streaming from Space Station
objects crossing your sky now

COSMOS 1375 DEB

Track COSMOS 1375 DEB now!
10-day predictions


NORAD ID: 18415
Int'l Code: 1982-055BE
Perigee: 946.2 km
Apogee: 1,059.4 km
Inclination: 65.8 °
Period: 105.0 minutes
Semi major axis: 7373 km
RCS: 0.0876 m2 (small)
Launch date: June 6, 1982
Source: Commonwealth of Independent States (former USSR) (CIS)
Launch site: PLESETSK MISSILE AND SPACE COMPLEX (PKMTR)

Note: This is SATELLITE DEBRIS
Your satellite tracking list
Your tracking list is empty




NASA's NSSDC Master Catalog

Two Line Element Set (TLE):
1 18415U 82055BE  23080.55774796  .00000672  00000-0  82276-3 0  9995
2 18415  65.8266 255.5235 0076773 320.3124  99.7352 13.71091919864684
Source of the keplerian elements: AFSPC